WZZ31BA LDDU-EPWA

Flight info

Callsign WZZ31BA
Flight time 1h 48m
Altitude 36000
Route MADOS L187 GEBNI DCT SOMUN/N0446F370 DCT TADAM DCT PARAK/N0444F360 DCT PITOK DCT ORTEB DCT KONZI DCT LOGDA
Aircraft A21N/M-SDE3FGHIRWY/LB1

Departure

Time 2026-05-05 10:56
Airport Dubrovnik Ruđer Bošković Airport (LDDU)

Arrival

Time 2026-05-05 12:45
Airport Warsaw Chopin Airport (EPWA)
Time Latitude Longitude Altitude Speed Heading
2026-05-05 10:04 42.56109 18.26255 522 ft 0 kts 207°
2026-05-05 10:48 42.56110 18.26255 522 ft 0 kts 207°
2026-05-05 10:49 42.56116 18.26260 522 ft 2 kts 207°
2026-05-05 10:49 42.56130 18.26271 522 ft 2 kts 226°
2026-05-05 10:49 42.56139 18.26288 523 ft 2 kts 244°
2026-05-05 10:49 42.56144 18.26308 522 ft 2 kts 263°
2026-05-05 10:50 42.56143 18.26328 522 ft 2 kts 281°
2026-05-05 10:50 42.56140 18.26344 522 ft 0 kts 295°
2026-05-05 10:50 42.56137 18.26352 522 ft 0 kts 298°
2026-05-05 10:53 42.56142 18.26339 522 ft 4 kts 297°
2026-05-05 10:53 42.56165 18.26280 522 ft 9 kts 297°
2026-05-05 10:53 42.56205 18.26176 523 ft 15 kts 299°
2026-05-05 10:54 42.56263 18.26031 523 ft 19 kts 298°
2026-05-05 10:54 42.56336 18.25847 523 ft 24 kts 298°
2026-05-05 10:54 42.56422 18.25626 520 ft 28 kts 297°
2026-05-05 10:54 42.56522 18.25375 517 ft 30 kts 298°
2026-05-05 10:55 42.56626 18.25125 512 ft 30 kts 297°
2026-05-05 10:55 42.56721 18.24874 510 ft 29 kts 296°
2026-05-05 10:55 42.56824 18.24682 510 ft 21 kts 341°
2026-05-05 10:55 42.56932 18.24771 510 ft 18 kts 82°
2026-05-05 10:56 42.56861 18.24989 510 ft 48 kts 118°
2026-05-05 10:56 42.56583 18.25693 521 ft 116 kts 118°
2026-05-05 10:56 42.56109 18.26898 566 ft 165 kts 119°
2026-05-05 10:56 42.55572 18.28284 1128 ft 169 kts 120°
2026-05-05 10:57 42.55032 18.29689 1846 ft 169 kts 120°
2026-05-05 10:57 42.54483 18.31063 2550 ft 168 kts 121°
2026-05-05 10:57 42.53930 18.32442 3175 ft 170 kts 120°
2026-05-05 10:57 42.53168 18.33678 3611 ft 181 kts 149°
2026-05-05 10:58 42.51899 18.34064 3995 ft 196 kts 187°
2026-05-05 10:58 42.50663 18.33198 4366 ft 214 kts 224°
2026-05-05 10:58 42.49981 18.31304 4681 ft 240 kts 262°
2026-05-05 10:58 42.50218 18.28993 5127 ft 262 kts 294°
2026-05-05 10:59 42.51447 18.27141 5678 ft 279 kts 328°
2026-05-05 10:59 42.53255 18.26125 6531 ft 282 kts 339°
2026-05-05 10:59 42.55104 18.25273 7354 ft 285 kts 340°
2026-05-05 10:59 42.57000 18.24400 8155 ft 288 kts 339°
2026-05-05 11:00 42.58911 18.23500 8951 ft 291 kts 339°
2026-05-05 11:00 42.60802 18.22593 9695 ft 295 kts 339°
2026-05-05 11:00 42.62735 18.21654 10408 ft 299 kts 339°
2026-05-05 11:00 42.64770 18.20661 10812 ft 315 kts 339°
2026-05-05 11:01 42.66878 18.19626 11219 ft 329 kts 339°
2026-05-05 11:01 42.69041 18.18564 11864 ft 334 kts 339°
2026-05-05 11:01 42.71221 18.17492 12574 ft 337 kts 339°
2026-05-05 11:01 42.73456 18.16393 13226 ft 341 kts 339°
2026-05-05 11:02 42.75695 18.15290 13852 ft 345 kts 339°
2026-05-05 11:02 42.77960 18.14185 14515 ft 348 kts 341°
2026-05-05 11:02 42.80327 18.13664 15158 ft 352 kts 360°
2026-05-05 11:02 42.82782 18.14262 15817 ft 355 kts 18°
2026-05-05 11:03 42.85120 18.15470 16479 ft 357 kts 20°
2026-05-05 11:03 42.87443 18.16733 17069 ft 360 kts 20°
2026-05-05 11:03 42.89751 18.17988 17630 ft 363 kts 20°
2026-05-05 11:03 42.92118 18.19262 18195 ft 366 kts 19°
2026-05-05 11:04 42.94518 18.20547 18758 ft 369 kts 19°
2026-05-05 11:04 42.96915 18.21823 19304 ft 371 kts 19°
2026-05-05 11:04 42.99309 18.23096 19850 ft 373 kts 19°
2026-05-05 11:04 43.01727 18.24378 20375 ft 376 kts 18°
2026-05-05 11:05 43.04212 18.25697 20929 ft 377 kts 18°
2026-05-05 11:05 43.06656 18.26995 21445 ft 379 kts 18°
2026-05-05 11:05 43.09134 18.28311 21960 ft 381 kts 18°
2026-05-05 11:05 43.11641 18.29644 22470 ft 382 kts 18°
2026-05-05 11:06 43.14107 18.30956 22946 ft 384 kts 18°
2026-05-05 11:06 43.16645 18.32306 23423 ft 386 kts 18°
2026-05-05 11:06 43.19154 18.33641 23886 ft 389 kts 17°
2026-05-05 11:06 43.21666 18.34981 24344 ft 391 kts 18°
2026-05-05 11:07 43.24191 18.36329 24768 ft 393 kts 17°
2026-05-05 11:07 43.26744 18.37691 25182 ft 396 kts 17°
2026-05-05 11:07 43.29348 18.39084 25606 ft 398 kts 17°
2026-05-05 11:07 43.31942 18.40473 26008 ft 400 kts 17°
2026-05-05 11:08 43.34541 18.41864 26401 ft 402 kts 17°
2026-05-05 11:08 43.37147 18.43263 26789 ft 404 kts 17°
2026-05-05 11:08 43.39791 18.44683 27162 ft 407 kts 17°
2026-05-05 11:08 43.42421 18.46095 27524 ft 409 kts 17°
2026-05-05 11:09 43.45074 18.47522 27865 ft 412 kts 17°
2026-05-05 11:09 43.47764 18.48968 28214 ft 414 kts 17°
2026-05-05 11:09 43.50461 18.50421 28582 ft 416 kts 17°
2026-05-05 11:09 43.53169 18.51883 28927 ft 418 kts 17°
2026-05-05 11:10 43.55888 18.53353 29261 ft 421 kts 17°
2026-05-05 11:10 43.58658 18.54850 29611 ft 423 kts 17°
2026-05-05 11:10 43.61381 18.56321 29951 ft 425 kts 17°
2026-05-05 11:10 43.64175 18.57835 30269 ft 427 kts 17°
2026-05-05 11:11 43.66960 18.59343 30577 ft 430 kts 17°
2026-05-05 11:11 43.69765 18.60864 30871 ft 432 kts 17°
2026-05-05 11:11 43.72602 18.62407 31170 ft 434 kts 17°
2026-05-05 11:11 43.75415 18.63935 31480 ft 436 kts 17°
2026-05-05 11:12 43.78240 18.65473 31772 ft 438 kts 17°
2026-05-05 11:12 43.81137 18.67051 32052 ft 440 kts 18°
2026-05-05 11:12 43.83965 18.68593 32309 ft 442 kts 17°
2026-05-05 11:12 43.86881 18.70184 32574 ft 444 kts 17°
2026-05-05 11:13 43.89787 18.71774 32929 ft 444 kts 17°
2026-05-05 11:13 43.92675 18.73357 33322 ft 442 kts 17°
2026-05-05 11:13 43.95583 18.74949 33722 ft 441 kts 17°
2026-05-05 11:13 43.98473 18.76535 34107 ft 439 kts 17°
2026-05-05 11:14 44.01385 18.78134 34475 ft 439 kts 17°
2026-05-05 11:14 44.04242 18.79699 34734 ft 440 kts 18°
2026-05-05 11:14 44.07132 18.81289 34929 ft 441 kts 18°
2026-05-05 11:14 44.10032 18.82886 35143 ft 443 kts 18°
2026-05-05 11:15 44.12906 18.84470 35362 ft 444 kts 18°
2026-05-05 11:15 44.15805 18.86069 35570 ft 445 kts 18°
2026-05-05 11:15 44.18750 18.87696 35787 ft 446 kts 18°
2026-05-05 11:15 44.21656 18.89304 35978 ft 446 kts 18°
2026-05-05 11:16 44.24562 18.90914 36037 ft 447 kts 18°
2026-05-05 11:16 44.30389 18.94146 36050 ft 447 kts 18°
2026-05-05 11:17 44.36195 18.97371 36051 ft 447 kts 18°
2026-05-05 11:17 44.41998 19.00604 36034 ft 447 kts 18°
2026-05-05 11:18 44.47800 19.03846 36023 ft 447 kts 18°
2026-05-05 11:18 44.53545 19.07063 35999 ft 447 kts 18°
2026-05-05 11:19 44.59346 19.10344 35992 ft 448 kts 20°
2026-05-05 11:19 44.65044 19.14055 35978 ft 449 kts 22°
2026-05-05 11:20 44.70697 19.17864 35969 ft 449 kts 22°
2026-05-05 11:20 44.76344 19.21674 35963 ft 448 kts 22°
2026-05-05 11:21 44.82030 19.25511 35952 ft 448 kts 22°
2026-05-05 11:21 44.87722 19.29360 35955 ft 448 kts 22°
2026-05-05 11:22 44.93520 19.33289 35955 ft 448 kts 22°
2026-05-05 11:22 44.99286 19.37204 35964 ft 448 kts 22°
2026-05-05 11:23 45.05013 19.41103 35954 ft 448 kts 22°
2026-05-05 11:23 45.10823 19.45067 35955 ft 448 kts 23°
2026-05-05 11:24 45.16613 19.49029 35955 ft 448 kts 23°
2026-05-05 11:24 45.22408 19.53003 35958 ft 448 kts 23°
2026-05-05 11:25 45.28247 19.56684 35964 ft 447 kts 20°
2026-05-05 11:25 45.34117 19.60124 35967 ft 447 kts 19°
2026-05-05 11:26 45.39997 19.63579 35966 ft 447 kts 19°
2026-05-05 11:26 45.45938 19.67087 35969 ft 447 kts 20°
2026-05-05 11:27 45.51942 19.70645 35968 ft 447 kts 20°
2026-05-05 11:27 45.57885 19.74176 35970 ft 447 kts 20°
2026-05-05 11:28 45.63790 19.77692 35970 ft 447 kts 20°
2026-05-05 11:28 45.69700 19.81221 35970 ft 447 kts 20°
2026-05-05 11:29 45.75628 19.84770 35969 ft 446 kts 20°
2026-05-05 11:29 45.81493 19.88287 35965 ft 446 kts 20°
2026-05-05 11:30 45.87395 19.91837 35966 ft 446 kts 21°
2026-05-05 11:30 45.93310 19.95402 35967 ft 446 kts 21°
2026-05-05 11:31 45.99085 19.98892 35968 ft 447 kts 21°
2026-05-05 11:31 46.04861 20.02393 35972 ft 447 kts 21°
2026-05-05 11:32 46.10782 20.05901 35967 ft 445 kts 18°
2026-05-05 11:32 46.16771 20.08546 35966 ft 443 kts 12°
2026-05-05 11:33 46.22901 20.10166 35966 ft 442 kts
2026-05-05 11:33 46.29218 20.11025 35969 ft 442 kts
2026-05-05 11:34 46.35584 20.11794 35967 ft 442 kts
2026-05-05 11:34 46.41802 20.12555 35966 ft 442 kts
2026-05-05 11:35 46.47958 20.13318 35962 ft 442 kts
2026-05-05 11:35 46.54128 20.14086 35961 ft 442 kts
2026-05-05 11:36 46.60279 20.14853 35956 ft 442 kts
2026-05-05 11:36 46.66425 20.15623 35951 ft 443 kts
2026-05-05 11:37 46.72586 20.16398 35952 ft 443 kts
2026-05-05 11:37 46.78807 20.17182 35954 ft 443 kts
2026-05-05 11:38 46.85013 20.17966 35954 ft 443 kts
2026-05-05 11:38 46.91180 20.18747 35957 ft 443 kts
2026-05-05 11:39 46.97388 20.19533 35955 ft 444 kts
2026-05-05 11:39 47.03592 20.20321 35959 ft 444 kts
2026-05-05 11:40 47.09784 20.21110 35955 ft 444 kts
2026-05-05 11:40 47.15937 20.21896 35958 ft 444 kts
2026-05-05 11:41 47.22191 20.22697 35958 ft 444 kts
2026-05-05 11:41 47.28378 20.23492 35957 ft 444 kts
2026-05-05 11:42 47.34576 20.24290 35952 ft 444 kts
2026-05-05 11:42 47.40757 20.25087 35948 ft 445 kts
2026-05-05 11:43 47.46970 20.25889 35947 ft 445 kts
2026-05-05 11:43 47.53114 20.26684 35946 ft 445 kts
2026-05-05 11:44 47.59293 20.27486 35947 ft 445 kts
2026-05-05 11:44 47.65456 20.28288 35945 ft 445 kts
2026-05-05 11:45 47.71615 20.29093 35947 ft 445 kts
2026-05-05 11:45 47.77795 20.29901 35948 ft 445 kts
2026-05-05 11:46 47.83989 20.30715 35955 ft 445 kts
2026-05-05 11:46 47.90158 20.31525 35965 ft 445 kts
2026-05-05 11:47 47.96307 20.32335 35972 ft 445 kts
2026-05-05 11:47 48.02490 20.33152 35974 ft 445 kts
2026-05-05 11:48 48.11782 20.34384 35980 ft 445 kts
2026-05-05 11:48 48.17973 20.35209 35979 ft 446 kts
2026-05-05 11:49 48.24118 20.36031 35979 ft 446 kts
2026-05-05 11:49 48.30329 20.36863 35971 ft 446 kts
2026-05-05 11:50 48.36495 20.37610 35975 ft 445 kts
2026-05-05 11:50 48.42706 20.38259 35971 ft 445 kts
2026-05-05 11:51 48.48977 20.38922 35971 ft 445 kts
2026-05-05 11:51 48.55154 20.39586 35975 ft 445 kts
2026-05-05 11:52 48.61360 20.40257 35982 ft 445 kts
2026-05-05 11:52 48.67530 20.40930 35987 ft 446 kts
2026-05-05 11:53 48.73750 20.41609 35990 ft 445 kts
2026-05-05 11:53 48.79924 20.42284 35995 ft 446 kts
2026-05-05 11:54 48.86161 20.42967 35987 ft 446 kts
2026-05-05 11:54 48.92309 20.43642 35984 ft 446 kts
2026-05-05 11:55 48.98508 20.44327 35983 ft 446 kts
2026-05-05 11:55 49.04660 20.45007 35977 ft 446 kts
2026-05-05 11:56 49.10831 20.45691 35976 ft 446 kts
2026-05-05 11:56 49.16994 20.46375 35981 ft 446 kts
2026-05-05 11:57 49.23178 20.47066 35980 ft 445 kts
2026-05-05 11:57 49.29362 20.47754 35972 ft 446 kts
2026-05-05 11:58 49.35560 20.48447 35964 ft 447 kts
2026-05-05 11:58 49.41952 20.49109 35955 ft 447 kts
2026-05-05 11:59 49.48403 20.49766 35950 ft 447 kts
2026-05-05 11:59 49.54655 20.50417 35937 ft 448 kts
2026-05-05 12:00 49.61045 20.51086 35929 ft 447 kts
2026-05-05 12:00 49.67559 20.51774 35928 ft 448 kts
2026-05-05 12:01 49.74013 20.52456 35924 ft 448 kts
2026-05-05 12:01 49.80414 20.53134 35911 ft 449 kts
2026-05-05 12:02 49.86710 20.53803 35905 ft 449 kts
2026-05-05 12:02 49.93071 20.54482 35901 ft 450 kts
2026-05-05 12:03 49.99361 20.55156 35892 ft 451 kts
2026-05-05 12:03 50.05655 20.55829 35881 ft 451 kts
2026-05-05 12:04 50.12011 20.56511 35883 ft 451 kts
2026-05-05 12:04 50.18518 20.57212 35880 ft 451 kts
2026-05-05 12:05 50.25021 20.57914 35883 ft 452 kts
2026-05-05 12:05 50.28160 20.58254 35693 ft 452 kts
2026-05-05 12:05 50.31372 20.58602 35417 ft 451 kts
2026-05-05 12:06 50.34638 20.58957 34949 ft 449 kts
2026-05-05 12:06 50.37761 20.59295 34274 ft 450 kts
2026-05-05 12:06 50.40951 20.59641 33555 ft 450 kts
2026-05-05 12:06 50.44177 20.59991 32836 ft 450 kts
2026-05-05 12:07 50.47366 20.60337 32123 ft 450 kts
2026-05-05 12:07 50.50473 20.60677 31573 ft 445 kts
2026-05-05 12:07 50.53534 20.61014 31140 ft 440 kts
2026-05-05 12:07 50.56578 20.61349 30686 ft 437 kts
2026-05-05 12:08 50.59597 20.61683 30231 ft 434 kts
2026-05-05 12:08 50.62568 20.62011 29773 ft 431 kts
2026-05-05 12:08 50.65573 20.62342 29294 ft 427 kts
2026-05-05 12:08 50.68543 20.62669 28819 ft 424 kts
2026-05-05 12:09 50.71561 20.63002 28330 ft 421 kts
2026-05-05 12:09 50.74635 20.63343 27832 ft 417 kts
2026-05-05 12:09 50.77625 20.63674 27341 ft 414 kts
2026-05-05 12:09 50.80546 20.63998 26866 ft 411 kts
2026-05-05 12:10 50.83439 20.64319 26395 ft 407 kts
2026-05-05 12:10 50.86274 20.64635 25933 ft 404 kts
2026-05-05 12:10 50.89167 20.64957 25460 ft 401 kts
2026-05-05 12:10 50.91975 20.65268 25009 ft 398 kts
2026-05-05 12:11 50.94803 20.65583 24537 ft 395 kts
2026-05-05 12:11 50.97625 20.65897 24066 ft 391 kts
2026-05-05 12:11 51.00373 20.66205 23608 ft 389 kts
2026-05-05 12:11 51.03023 20.66503 23170 ft 386 kts
2026-05-05 12:12 51.05712 20.66805 22718 ft 383 kts
2026-05-05 12:12 51.08370 20.67104 22267 ft 381 kts
2026-05-05 12:12 51.10979 20.67398 21822 ft 379 kts
2026-05-05 12:12 51.13618 20.67695 21372 ft 377 kts
2026-05-05 12:13 51.16234 20.67992 20923 ft 375 kts
2026-05-05 12:13 51.18802 20.68283 20480 ft 373 kts
2026-05-05 12:13 51.21409 20.68578 20033 ft 371 kts
2026-05-05 12:13 51.23967 20.68867 19590 ft 369 kts
2026-05-05 12:14 51.26514 20.69196 19149 ft 368 kts
2026-05-05 12:14 51.29049 20.69873 18726 ft 369 kts 11°
2026-05-05 12:14 51.31535 20.70969 18704 ft 374 kts 15°
2026-05-05 12:14 51.34010 20.72270 18727 ft 376 kts 17°
2026-05-05 12:15 51.36484 20.73616 18747 ft 376 kts 17°
2026-05-05 12:15 51.38982 20.74975 18401 ft 378 kts 17°
2026-05-05 12:15 51.41446 20.76311 17927 ft 376 kts 17°
2026-05-05 12:15 51.43943 20.77659 17462 ft 374 kts 17°
2026-05-05 12:16 51.46387 20.78973 17021 ft 371 kts 16°
2026-05-05 12:16 51.48811 20.80276 16584 ft 369 kts 16°
2026-05-05 12:16 51.51246 20.81584 16138 ft 366 kts 16°
2026-05-05 12:16 51.53660 20.82884 15706 ft 364 kts 16°
2026-05-05 12:17 51.56043 20.84169 15265 ft 362 kts 16°
2026-05-05 12:17 51.58407 20.85448 14843 ft 360 kts 16°
2026-05-05 12:17 51.60789 20.86737 14398 ft 358 kts 16°
2026-05-05 12:17 51.63119 20.88000 13967 ft 357 kts 16°
2026-05-05 12:18 51.65483 20.89282 13530 ft 355 kts 16°
2026-05-05 12:18 51.67815 20.90548 13094 ft 354 kts 16°
2026-05-05 12:18 51.70130 20.91788 12664 ft 352 kts 16°
2026-05-05 12:18 51.72456 20.93005 12254 ft 349 kts 15°
2026-05-05 12:19 51.74741 20.94198 12061 ft 339 kts 15°
2026-05-05 12:19 51.76947 20.95174 11918 ft 323 kts
2026-05-05 12:19 51.79106 20.94775 11652 ft 306 kts 335°
2026-05-05 12:19 51.80967 20.93276 11296 ft 299 kts 327°
2026-05-05 12:20 51.82800 20.91649 10928 ft 297 kts 327°
2026-05-05 12:20 51.84594 20.90089 10576 ft 296 kts 327°
2026-05-05 12:20 51.86429 20.88531 10206 ft 294 kts 328°
2026-05-05 12:20 51.88217 20.87031 9845 ft 293 kts 328°
2026-05-05 12:21 51.90026 20.85526 9526 ft 290 kts 328°
2026-05-05 12:21 51.91803 20.84045 9166 ft 288 kts 328°
2026-05-05 12:21 51.93572 20.82572 8893 ft 284 kts 328°
2026-05-05 12:21 51.95301 20.81133 8759 ft 273 kts 329°
2026-05-05 12:22 51.97023 20.79978 8630 ft 267 kts 347°
2026-05-05 12:22 51.98848 20.80321 8462 ft 269 kts 24°
2026-05-05 12:22 52.00253 20.82259 8139 ft 268 kts 60°
2026-05-05 12:22 52.01064 20.84926 7861 ft 265 kts 69°
2026-05-05 12:23 52.01797 20.87675 7576 ft 263 kts 68°
2026-05-05 12:23 52.02411 20.90422 7224 ft 259 kts 86°
2026-05-05 12:23 52.02135 20.93186 6898 ft 246 kts 123°
2026-05-05 12:23 52.01006 20.95145 6607 ft 236 kts 153°
2026-05-05 12:24 51.99546 20.96345 6332 ft 235 kts 157°
2026-05-05 12:24 51.98106 20.97519 6054 ft 234 kts 155°
2026-05-05 12:24 51.96669 20.98737 5754 ft 233 kts 155°
2026-05-05 12:24 51.95248 20.99967 5461 ft 232 kts 154°
2026-05-05 12:25 51.93837 21.01201 5166 ft 231 kts 154°
2026-05-05 12:25 51.92413 21.02449 4940 ft 228 kts 154°
2026-05-05 12:25 51.91027 21.03651 4962 ft 230 kts 154°
2026-05-05 12:25 51.89646 21.04854 4981 ft 218 kts 152°
2026-05-05 12:26 51.88545 21.06489 4897 ft 215 kts 122°
2026-05-05 12:26 51.88134 21.08801 4851 ft 222 kts 92°
2026-05-05 12:26 51.88504 21.11238 4813 ft 227 kts 65°
2026-05-05 12:26 51.89266 21.13485 4776 ft 227 kts 62°
2026-05-05 12:27 51.90077 21.15673 4673 ft 228 kts 51°
2026-05-05 12:27 51.91354 21.17123 4579 ft 228 kts 19°
2026-05-05 12:27 51.92913 21.17229 4428 ft 225 kts 345°
2026-05-05 12:27 51.94333 21.16280 4278 ft 222 kts 330°
2026-05-05 12:28 51.95683 21.15089 4115 ft 221 kts 327°
2026-05-05 12:28 51.97042 21.13843 3946 ft 220 kts 327°
2026-05-05 12:28 51.98394 21.12620 3766 ft 220 kts 328°
2026-05-05 12:28 51.99749 21.11417 3588 ft 220 kts 328°
2026-05-05 12:29 52.01069 21.10261 3401 ft 213 kts 328°
2026-05-05 12:29 52.02357 21.09139 3130 ft 207 kts 328°
2026-05-05 12:29 52.03615 21.08043 2861 ft 201 kts 328°
2026-05-05 12:29 52.04826 21.06986 2604 ft 195 kts 328°
2026-05-05 12:30 52.05997 21.05964 2354 ft 189 kts 328°
2026-05-05 12:30 52.07150 21.04957 2133 ft 180 kts 328°
2026-05-05 12:30 52.08198 21.04044 1911 ft 164 kts 328°
2026-05-05 12:30 52.09159 21.03206 1684 ft 147 kts 327°
2026-05-05 12:31 52.10026 21.02447 1496 ft 142 kts 327°
2026-05-05 12:31 52.10900 21.01679 1327 ft 141 kts 327°
2026-05-05 12:31 52.11772 21.00920 1153 ft 142 kts 328°
2026-05-05 12:31 52.12641 21.00165 958 ft 143 kts 328°
2026-05-05 12:32 52.13518 20.99395 785 ft 142 kts 327°
2026-05-05 12:32 52.14382 20.98631 634 ft 140 kts 329°
2026-05-05 12:32 52.15241 20.97879 442 ft 139 kts 328°
2026-05-05 12:32 52.16087 20.97145 343 ft 128 kts 327°
2026-05-05 12:33 52.16897 20.96445 635 ft 141 kts 327°
2026-05-05 12:33 52.17762 20.95697 1030 ft 139 kts 329°
2026-05-05 12:33 52.18624 20.94972 1348 ft 140 kts 328°
2026-05-05 12:33 52.19525 20.94193 1690 ft 156 kts 327°
2026-05-05 12:34 52.20453 20.93371 2182 ft 148 kts 327°
2026-05-05 12:34 52.21412 20.92473 2694 ft 170 kts 323°
2026-05-05 12:34 52.22588 20.91536 2988 ft 211 kts 345°
2026-05-05 12:34 52.24169 20.91648 2984 ft 240 kts 13°
2026-05-05 12:35 52.25722 20.92654 2928 ft 243 kts 37°
2026-05-05 12:35 52.26902 20.94644 2977 ft 244 kts 53°
2026-05-05 12:35 52.27894 20.96877 2990 ft 243 kts 56°
2026-05-05 12:35 52.28773 20.99242 2983 ft 242 kts 72°
2026-05-05 12:36 52.28934 21.01920 2988 ft 237 kts 104°
2026-05-05 12:36 52.28229 21.04275 2995 ft 232 kts 136°
2026-05-05 12:36 52.26937 21.05796 3006 ft 229 kts 153°
2026-05-05 12:36 52.25517 21.06983 3001 ft 228 kts 156°
2026-05-05 12:37 52.24083 21.08109 3000 ft 228 kts 157°
2026-05-05 12:37 52.22667 21.09212 2999 ft 227 kts 157°
2026-05-05 12:37 52.21238 21.10322 3000 ft 227 kts 157°
2026-05-05 12:37 52.19811 21.11428 3003 ft 226 kts 157°
2026-05-05 12:38 52.18362 21.12546 2998 ft 226 kts 157°
2026-05-05 12:38 52.16911 21.13665 2999 ft 226 kts 157°
2026-05-05 12:38 52.15463 21.14786 3000 ft 225 kts 157°
2026-05-05 12:38 52.14055 21.15875 3003 ft 225 kts 157°
2026-05-05 12:39 52.12634 21.16972 2994 ft 225 kts 157°
2026-05-05 12:39 52.11222 21.18064 2995 ft 226 kts 157°
2026-05-05 12:39 52.09785 21.19179 3003 ft 226 kts 157°
2026-05-05 12:39 52.08331 21.20285 2999 ft 226 kts 161°
2026-05-05 12:40 52.06808 21.20588 2992 ft 222 kts 192°
2026-05-05 12:40 52.05441 21.19458 2996 ft 218 kts 225°
2026-05-05 12:40 52.04749 21.17376 2979 ft 206 kts 259°
2026-05-05 12:40 52.04776 21.15053 2957 ft 200 kts 274°
2026-05-05 12:41 52.05166 21.12966 2946 ft 191 kts 291°
2026-05-05 12:41 52.05810 21.11053 2795 ft 189 kts 296°
2026-05-05 12:41 52.06475 21.09212 2605 ft 190 kts 297°
2026-05-05 12:41 52.07143 21.07383 2371 ft 185 kts 297°
2026-05-05 12:42 52.07802 21.05595 2078 ft 182 kts 297°
2026-05-05 12:42 52.08501 21.03993 1847 ft 170 kts 311°
2026-05-05 12:42 52.09422 21.02921 1624 ft 156 kts 326°
2026-05-05 12:42 52.10342 21.02133 1410 ft 146 kts 330°
2026-05-05 12:43 52.11240 21.01388 1255 ft 144 kts 328°
2026-05-05 12:43 52.12120 21.00625 1069 ft 143 kts 328°
2026-05-05 12:43 52.13009 20.99841 906 ft 145 kts 328°
2026-05-05 12:43 52.13893 20.99072 715 ft 143 kts 328°
2026-05-05 12:44 52.14756 20.98313 521 ft 142 kts 328°
2026-05-05 12:44 52.15626 20.97545 373 ft 139 kts 328°
2026-05-05 12:44 52.16387 20.96875 338 ft 101 kts 331°
2026-05-05 12:44 52.16865 20.96460 338 ft 63 kts 331°
2026-05-05 12:45 52.17193 20.96241 340 ft 36 kts
2026-05-05 12:45 52.17337 20.96250 340 ft 11 kts
2026-05-05 12:45 52.17404 20.96314 339 ft 12 kts 65°
2026-05-05 12:45 52.17370 20.96421 339 ft 12 kts 153°
2026-05-05 12:46 52.17286 20.96489 339 ft 13 kts 152°
2026-05-05 12:46 52.17199 20.96564 338 ft 14 kts 152°
2026-05-05 12:46 52.17131 20.96679 337 ft 15 kts 86°
2026-05-05 12:46 52.17155 20.96833 338 ft 14 kts 119°
2026-05-05 12:47 52.17070 20.96921 338 ft 14 kts 152°
2026-05-05 12:47 52.16983 20.96998 338 ft 11 kts 150°
2026-05-05 12:47 52.16942 20.96995 337 ft 5 kts 224°
2026-05-05 12:47 52.16933 20.96933 337 ft 5 kts 279°
2026-05-05 12:48 52.16936 20.96903 337 ft 0 kts 277°